Regional Weather Roundup
Issued by NWS

Home | Current Version | Previous Version | Graphics & Text | Print | Product List | Glossary On
Versions: 1 2 3 4 5 6 7 8 9 10 11 12 13 14 15 16 17 18 19 20 21 22 23 24 25 26 27 28 29 30 31 32 33 34 35 36 37 38 39 40 41 42 43 44 45 46 47 48 49 50
000
ASUS45 KCYS 241410
RWRWY

WYOMING REGIONAL WEATHER ROUNDUP
NATIONAL WEATHER SERVICE CHEYENNE WY
800 AM MDT FRI APR 24 2015

NOTE:  "FAIR" INDICATES FEW OR NO CLOUDS BELOW 12,000 FEET
WITH NO SIGNIFICANT WEATHER AND/OR OBSTRUCTIONS TO VISIBILITY.

WYZ001-241500-
YELLOWSTONE NATIONAL PARK

CITY           SKY/WX    TMP DP  RH WIND       PRES   REMARKS
LK YELLOWSTONE   N/A     29  24  82 CALM      29.79R
W YELLOWSTONE  NOT AVBL

$$
WYZ002>013-054>058-071-098>099-241500-
NORTHERN WYOMING

CITY           SKY/WX    TMP DP  RH WIND       PRES   REMARKS
JACKSON        SUNNY     34  30  86 CALM      29.78R
CODY           FAIR      52  23  32 W13G22    29.66S
GREYBULL       FAIR      42  37  82 CALM      29.66S
WORLAND        FAIR      44  40  85 S5        29.66S
SHERIDAN       FAIR      42  40  92 CALM      29.64S
BUFFALO        FAIR      54  36  50 CALM      29.66R
GILLETTE       FAIR      48  42  80 CALM      29.65R
HULETT         PTSUNNY   48  41  76 SE3       29.66S
NEWCASTLE      FAIR      45  36  70 CALM      29.67S

$$
WYZ014>020-022>026-101>103-241500-
CENTRAL WYOMING

CITY           SKY/WX    TMP DP  RH WIND       PRES   REMARKS
BIG PINEY      CLOUDY    30  27  88 E6        29.80S WCI  24
PINEDALE       FAIR      30  30 100 W3        29.81S
DUBOIS         FAIR      34  23  64 NW14      29.74F WCI  24
LANDER         FAIR      47  28  47 CALM      29.70R
RIVERTON       FAIR      44  30  57 SW7       29.71R
CASPER         FAIR      48  36  63 SW12      29.70R
DOUGLAS        FAIR      45  39  79 N6        29.68S

$$
WYZ021-027>030-104>119-241500-
SOUTHERN WYOMING

CITY           SKY/WX    TMP DP  RH WIND       PRES   REMARKS
EVANSTON       CLOUDY    39  33  79 SW7       29.79S WCI  34
FORT BRIDGER   MOSUNNY   43  32  65 W7        29.81F
ROCK SPRINGS   FAIR      39  33  79 N5        29.78F
DIXON          FAIR      38  32  79 SE5       29.83S WCI  34
RAWLINS        FAIR      43  31  62 SW9       29.77F
SARATOGA       FAIR      39  32  75 SE7       29.80S WCI  34
LARAMIE        FAIR      42  30  62 SW17      29.77S
CHEYENNE       FAIR      48  30  49 W13       29.74F
TORRINGTON     FAIR      48  37  65 CALM      29.67S
PINE BLUFFS    FAIR      43  36  75 CALM      29.73F

$$


USA.gov is the U.S. government's official web portal to all federal, state and local government web resources and services.